Location: Chacón
(10.5789°N, 66.9317°W)
Time: 21:21:02
(UTC+00:00)

Cosmos 332 Rocket - Pass Details

Date: 23 May 2024
Orbit: 676 x 699 km, 74.0° (Epoch: 25 June)

Event Time Altitude Azimuth Distance (km) Brightness Sun altitude
Exits shadow 08:16:18 71° 164° (SSE) 722 3.7 -25.0°
Maximum altitude 08:16:46 81° 103° (ESE) 695 3.7 -24.9°
Drops below altitude 10° 08:21:34 10° 16° (NNE) 2,130 6.9 -23.9°
Sets 08:23:52 0° 15° (NNE) 3,050 7.7 -23.4°
